TimeEDT,TemperatureF,Dew PointF,Humidity,Sea Level PressureIn,VisibilityMPH,Wind Direction,Wind SpeedMPH,Gust SpeedMPH,PrecipitationIn,Events,Conditions,WindDirDegrees,DateUTC
12:53 AM,64.9,59.0,81,29.78,10.0,WSW,9.2,-,N/A,,Overcast,240,2013-05-23 04:53:00
1:53 AM,64.0,60.1,87,29.78,10.0,WSW,6.9,-,0.00,,Overcast,250,2013-05-23 05:53:00
2:53 AM,61.0,57.9,90,29.78,10.0,WSW,3.5,-,N/A,,Scattered Clouds,250,2013-05-23 06:53:00
3:53 AM,63.0,59.0,87,29.78,9.0,SW,5.8,-,N/A,,Overcast,230,2013-05-23 07:53:00
4:53 AM,62.1,59.0,90,29.80,9.0,SW,6.9,-,N/A,,Overcast,230,2013-05-23 08:53:00
5:53 AM,62.1,57.9,86,29.81,9.0,WSW,6.9,-,N/A,,Overcast,240,2013-05-23 09:53:00
6:53 AM,62.1,55.9,80,29.83,10.0,West,8.1,-,N/A,,Overcast,260,2013-05-23 10:53:00
7:53 AM,62.1,57.9,86,29.85,8.0,WSW,8.1,-,N/A,,Mostly Cloudy,250,2013-05-23 11:53:00
8:53 AM,63.0,57.0,81,29.85,10.0,West,9.2,-,N/A,,Scattered Clouds,260,2013-05-23 12:53:00
9:16 AM,64.4,55.4,73,29.87,10.0,WSW,11.5,-,N/A,,Mostly Cloudy,250,2013-05-23 13:16:00
9:53 AM,64.0,55.9,75,29.87,10.0,West,11.5,-,N/A,,Mostly Cloudy,260,2013-05-23 13:53:00
10:35 AM,64.4,55.4,73,29.88,10.0,West,13.8,-,N/A,,Overcast,270,2013-05-23 14:35:00
10:53 AM,64.0,55.9,75,29.87,10.0,West,13.8,-,N/A,,Overcast,260,2013-05-23 14:53:00
11:29 AM,64.4,55.4,73,29.88,10.0,West,10.4,-,N/A,,Overcast,280,2013-05-23 15:29:00
11:53 AM,64.9,55.0,70,29.88,10.0,West,10.4,-,N/A,,Overcast,280,2013-05-23 15:53:00
12:50 PM,66.2,57.2,73,29.90,10.0,WSW,8.1,-,0.00,,Overcast,250,2013-05-23 16:50:00
12:53 PM,66.0,57.0,73,29.89,10.0,WSW,8.1,-,0.00,,Overcast,250,2013-05-23 16:53:00
1:26 PM,62.6,57.2,82,29.90,2.0,West,5.8,-,0.01,Rain,Light Rain,280,2013-05-23 17:26:00
1:30 PM,62.6,59.0,88,29.90,5.0,West,4.6,-,0.01,Rain,Light Rain,260,2013-05-23 17:30:00
1:53 PM,66.0,59.0,78,29.88,10.0,WSW,10.4,-,0.01,,Overcast,250,2013-05-23 17:53:00
2:53 PM,64.9,57.0,75,29.90,10.0,West,11.5,-,N/A,,Overcast,270,2013-05-23 18:53:00
3:07 PM,64.4,55.4,73,29.92,10.0,West,15.0,-,N/A,,Overcast,270,2013-05-23 19:07:00
3:34 PM,62.6,57.2,82,29.93,10.0,NW,16.1,21.9,0.00,Rain,Light Rain,310,2013-05-23 19:34:00
3:53 PM,62.1,57.9,86,29.93,6.0,WNW,15.0,20.7,0.00,Rain,Light Rain,300,2013-05-23 19:53:00
4:20 PM,64.4,55.4,73,29.94,10.0,WNW,16.1,23.0,0.00,,Overcast,290,2013-05-23 20:20:00
4:53 PM,66.0,55.9,70,29.93,10.0,WNW,15.0,23.0,0.00,,Overcast,300,2013-05-23 20:53:00
5:18 PM,64.4,55.4,73,29.94,10.0,WNW,15.0,25.3,N/A,,Overcast,300,2013-05-23 21:18:00
5:53 PM,63.0,52.0,67,29.96,10.0,NW,18.4,24.2,N/A,,Overcast,320,2013-05-23 21:53:00
6:24 PM,60.8,50.0,68,29.99,10.0,NNW,17.3,-,N/A,,Overcast,340,2013-05-23 22:24:00
6:43 PM,59.0,48.2,67,30.00,10.0,NNW,16.1,-,N/A,,Overcast,330,2013-05-23 22:43:00
6:53 PM,57.9,48.9,72,30.00,10.0,NW,17.3,-,N/A,,Overcast,320,2013-05-23 22:53:00
7:53 PM,55.9,46.9,72,30.03,10.0,NNW,18.4,23.0,N/A,,Overcast,330,2013-05-23 23:53:00
8:53 PM,53.1,46.0,77,30.06,10.0,NNW,15.0,23.0,N/A,,Overcast,330,2013-05-24 00:53:00
9:40 PM,53.6,46.4,77,30.08,10.0,NNW,13.8,-,N/A,,Overcast,340,2013-05-24 01:40:00
9:53 PM,53.1,46.9,80,30.08,10.0,NNW,16.1,-,N/A,,Overcast,340,2013-05-24 01:53:00
10:53 PM,53.1,46.0,77,30.11,10.0,NNW,17.3,-,N/A,,Overcast,330,2013-05-24 02:53:00
11:40 PM,51.8,46.4,82,30.13,10.0,NNW,15.0,-,N/A,,Overcast,340,2013-05-24 03:40:00
11:53 PM,52.0,46.0,80,30.13,10.0,NNW,16.1,-,N/A,,Overcast,340,2013-05-24 03:53:00